Погода в Сирениках

Россия / Чукотский автономный округ     64°24′27″N   173°56′30″W
темп.,
°C
ветер,
м/с
пор.,
м/с
влажн.,
%
обл.,
%
осадки,
мм/ч
давл.,
гПа
погр.,
м
24 мая, вт
вт2400:00+3юз1174100 0.0 101920
03:00+4ссв0067100 0.0 101810
06:00+6сз22595 0.0 101760
09:00+6зсз23595 0.0 1018205
12:00+5зсз24630 0.0 1017247
15:00+5зсз23674 0.0 1017173
18:00+5зсз13715 0.0 1016132
21:00+4сз227325 0.0 101649
25 мая, ср
ср2500:00+4сз2270100 0.0 101511
03:00+3сз2276100 0.0 101411
06:00+4сз2272100 0.0 101453
09:00+4зсз2272100 0.0 1013137
12:00+3з1272100 0.0 1013161
15:00+3юз1172100 0.0 1012128
18:00+3ююз117435 0.0 101267
21:00+2ююз11775 0.0 101217
26 мая, чт
чт2600:00+1ююз017722 0.0 101210
03:00+1ю0175100 0.0 101210
06:00+3юз11735 0.0 101335
09:00+4ююз22736 0.0 1013122
12:00+3ю337643 0.0 1013143
15:00+3ю347858 0.0 1014129
18:00+2ю338163 0.0 101495
21:00+1ююв238554 0.0 101562
27 мая, пт
пт2700:00+1ююв338616 0.0 101556
03:000ююв338719 0.0 101647
06:00+2ююв348742 0.0 101693
09:00+2ю448661 0.0 1017138
12:00+2ю458765 0.0 1017154
15:00+2ююв458866 0.0 1017163
18:00+1ююв359268 0.0 1017131
21:00+1ююв349567 0.0 101897
28 мая, сб
сб2800:000ююв349775 0.0 101890
03:00−1ююв349788 0.0 101890
06:000ю349668 0.0 1018136
09:00+1ююз229259 0.0 1018125
12:00+2ююз228755 0.0 1018139
15:00+1юз228555 0.0 1018154
18:00+1з118451 0.0 1019114
21:00+1з118951 0.0 101955